The Dalles, WA

1:49 PM PDT on September 19, 2019 (GMT -0700)
Columbia Gorge Regional-The Dalles

Weather History for KDLS - August, 2019

Change the Weather History Date:

Saturday, August 24, 2019

  Actual Average Record
Temperature  
Mean Temperature 75 °F -  
Max Temperature 84 °F 83 °F 106 °F (1958)
Min Temperature 68 °F 57 °F 44 °F (1963)
Cooling Degree Days 10    
Growing Degree Days 25 (Base 50)    
Moisture  
Dew Point 52 °F    
Average Humidity 45    
Maximum Humidity 63    
Minimum Humidity 30    
Precipitation  
Precipitation 0.00 in - - ()
Sea Level Pressure  
Sea Level Pressure 29.88 in    
Wind  
Wind Speed 13 mph ()    
Max Wind Speed 25 mph    
Max Gust Speed 34 mph    
Visibility 10.0 miles    
Events      
Averages and records for this station are not official NWS values.
T = Trace of Precipitation, MM = Missing Value Source: Averaged Metar Reports

Daily Weather History Graph

Daily Weather History Graph

Search for Another Location

Airport or City:

Astronomy

Aug. 24, 2019 Rise Set
Actual Time 6:15 AM PDT 7:57 PM PDT
Civil Twilight 5:44 AM PDT 8:28 PM PDT
Nautical Twilight 5:06 AM PDT 9:06 PM PDT
Astronomical Twilight 4:24 AM PDT 9:47 PM PDT
Moon 12:05 AM PDT (8/24) 3:27 PM PDT (8/24)
Length of Visible Light 14h 44m
Length of Day
13h 41m
Last Quarter, 38% of the Moon is Illuminated
Aug 24
Last Quarter
Aug 30
New
Sep 5
First Quarter
Sep 13
Full
Sep 21
Last Quarter

Hourly Weather History & Observations

Time (PDT) Temp. Dew Point Humidity Pressure Visibility Wind Dir Wind Speed Gust Speed Precip Events Conditions
12:53 AM 73.9 °F 52.0 °F 46% 29.82 in 10.0 mi West 16.1 mph 25.3 mph N/A   Clear
1:53 AM 72.0 °F 52.0 °F 49% 29.83 in 10.0 mi West 10.4 mph - N/A   Clear
2:53 AM 70.0 °F 53.1 °F 55% 29.83 in 10.0 mi WNW 11.5 mph - N/A   Clear
3:53 AM 69.1 °F 55.0 °F 61% 29.83 in 10.0 mi NW 13.8 mph - N/A   Clear
4:53 AM 68.0 °F 55.0 °F 63% 29.84 in 10.0 mi NW 8.1 mph - N/A   Clear
5:53 AM 69.1 °F 54.0 °F 58% 29.86 in 10.0 mi WNW 9.2 mph - N/A   Clear
6:53 AM 68.0 °F 53.1 °F 59% 29.86 in 10.0 mi WNW 10.4 mph 19.6 mph N/A   Clear
7:53 AM 70.0 °F 54.0 °F 57% 29.88 in 10.0 mi NW 9.2 mph - 0.00 in   Clear
8:53 AM 72.0 °F 53.1 °F 51% 29.91 in 10.0 mi WNW 18.4 mph 25.3 mph N/A   Clear
9:53 AM 75.0 °F 50.0 °F 41% 29.91 in 10.0 mi WNW 17.3 mph 25.3 mph N/A   Clear
10:53 AM 78.1 °F 45.0 °F 31% 29.90 in 10.0 mi WNW 16.1 mph 25.3 mph N/A   Clear
11:53 AM 80.1 °F 46.0 °F 30% 29.89 in 10.0 mi WNW 19.6 mph 28.8 mph N/A   Clear
12:53 PM 81.0 °F 48.9 °F 33% 29.89 in 10.0 mi NW 19.6 mph 28.8 mph N/A   Clear
1:53 PM 82.9 °F 50.0 °F 32% 29.90 in 10.0 mi WNW 13.8 mph 24.2 mph N/A   Clear
3:53 PM 82.9 °F 50.0 °F 32% 29.88 in 10.0 mi WNW 24.2 mph 32.2 mph N/A   Clear
4:53 PM 82.9 °F 50.0 °F 32% 29.88 in 10.0 mi West 25.3 mph 34.5 mph N/A   Clear
5:53 PM 81.0 °F 51.1 °F 35% 29.89 in 10.0 mi West 20.7 mph 31.1 mph N/A   Clear
6:53 PM 79.0 °F 51.1 °F 38% 29.89 in 10.0 mi West 21.9 mph 34.5 mph N/A   Clear
7:53 PM 75.9 °F 51.1 °F 42% 29.90 in 10.0 mi West 19.6 mph 28.8 mph N/A   Clear
8:53 PM 75.0 °F 52.0 °F 44% 29.91 in 10.0 mi West 16.1 mph 24.2 mph N/A   Clear
9:53 PM 73.0 °F 53.1 °F 49% 29.93 in 10.0 mi WNW 18.4 mph - N/A   Clear
10:53 PM 72.0 °F 53.1 °F 51% 29.93 in 10.0 mi WNW 16.1 mph 23.0 mph N/A   Clear
11:53 PM 70.0 °F 54.0 °F 57% 29.93 in 10.0 mi West 11.5 mph - N/A   Clear